Regional Weather Roundup
Issued by NWS

Home | Current Version | Previous Version | Text Only | Print | Product List | Glossary On
Versions: 1 2 3 4 5 6 7 8 9 10 11 12 13 14 15 16 17 18 19 20 21 22 23 24 25 26 27 28 29 30 31 32 33 34 35 36 37 38 39 40 41 42 43 44 45 46 47 48 49 50
000
ASUS46 KPQR 261110
RWROR

OREGON REGIONAL WEATHER ROUNDUP
NATIONAL WEATHER SERVICE PORTLAND OR
300 AM PST SUN FEB 26 2017

NOTE: "FAIR" INDICATES FEW OR NO CLOUDS BELOW 12,000 FEET WITH
NO SIGNIFICANT WEATHER AND/OR OBSTRUCTIONS TO VISIBILITY.

ORZ001>013-261200-
NORTHWEST OREGON


CITY           SKY/WX    TMP DP  RH WIND       PRES   REMARKS
ASTORIA        LGT RAIN  41  36  82 S10       29.79F
NEWPORT        CLOUDY    39  37  93 S8        29.91F WCI  34
PORTLAND       CLOUDY    40  34  79 S12       29.88F WCI  33
VANCOUVER WA   CLOUDY    40  36  86 SE6       29.87F
SCAPPOOSE      CLOUDY    38  35  89 S5        29.85F WCI  34
HILLSBORO      CLOUDY    39  35  86 S10       29.85F WCI  32
AURORA         CLOUDY    39  33  79 S15       29.89F WCI  31
MCMINNVILLE    CLOUDY    39  34  82 SE7       29.87F WCI  34
SALEM          CLOUDY    39  33  79 S12       29.88F WCI  32
CORVALLIS        N/A     37  34  87 S9        29.91F WCI  31
EUGENE         CLOUDY    35  34  96 S7        29.94F WCI  29
$$

ORZ021-028-261200-
SOUTHWEST OREGON


CITY           SKY/WX    TMP DP  RH WIND       PRES   REMARKS
NORTH BEND     CLOUDY    37  37 100 SE7       29.99F WCI  32
ROSEBURG       MOCLDY    34  32  92 CALM      29.98F
SEXTON SUMMIT  FOG       27  26  96 SW13G21   29.85F VSB 1   WCI  16
MEDFORD        CLEAR     30  28  92 CALM      29.96F
$$

ORZ014>016-041-261200-
COLUMBIA GORGE


CITY           SKY/WX    TMP DP  RH WIND       PRES   REMARKS
TROUTDALE      CLOUDY    41  34  76 S8        29.88F
THE DALLES     CLOUDY    40  30  67 NW9       29.86F WCI  34
$$

ORZ029>031-041-044-049-050-061>064-502-503-505>511-261200-
EASTERN OREGON


CITY           SKY/WX    TMP DP  RH WIND       PRES   REMARKS
REDMOND        CLOUDY    32  19  58 E5        29.80F WCI  27
BEND           CLOUDY    32  18  55 SW12      29.79F WCI  23
PRINEVILLE     CLOUDY    28  25  86 S3        29.81F
KLAMATH FALLS  CLEAR     24  22  91 S7        29.88F WCI  16
LAKEVIEW       PTCLDY    25  19  80 S7        29.88F WCI  17
HERMISTON      CLOUDY    37  31  78 S8        29.85F WCI  31
PENDLETON      CLOUDY    35  29  78 SW7       29.83F WCI  29
JOHN DAY       CLOUDY    31  20  64 CALM      29.81F
MEACHAM        LGT SNOW  26  21  81 CALM      29.76F
LA GRANDE      CLOUDY    34  19  55 S7        29.80F WCI  28
BAKER CITY     CLOUDY    26  23  88 NE3       29.81F
BURNS          MOCLDY    16  13  88 CALM      29.83F
ROME             N/A     22  14  71 SE15      29.85F WCI   9
ONTARIO        MOCLDY    22  18  85 CALM      29.91F
$$



USA.gov is the U.S. government's official web portal to all federal, state and local government web resources and services.